W4NDF-13 Weather Reports


time (UTC)temp
C
wind
direction
speed
KPH
gust
KPH
rain 1hr
cm
rain 24hr
cm
rain mn
cm
humidity
%
barometer
mb
20260505101223 18 219 0.0 1.6 0.00 0.00 0.00 88 1013.8
20260505100720 17 182 0.0 1.6 0.00 0.00 0.00 89 1013.5
20260505100217 17 211 0.0 1.6 0.00 0.00 0.00 89 1013.6
20260505095712 17 211 0.0 0.0 0.00 0.00 0.00 88 1013.7
20260505095211 18 210 0.0 0.0 0.00 0.00 0.00 88 1013.7
20260505094706 18 210 0.0 0.0 0.00 0.00 0.00 87 1013.6
20260505094202 18 204 0.0 0.0 0.00 0.00 0.00 87 1013.7
20260505093659 18 208 0.0 0.0 0.00 0.00 0.00 86 1013.6
20260505093157 18 237 0.0 0.0 0.00 0.00 0.00 86 1013.6
20260505092653 18 236 0.0 0.0 0.00 0.00 0.00 86 1013.4
20260505092152 18 224 1.6 3.2 0.00 0.00 0.00 87 1013.5
20260505091649 18 210 0.0 0.0 0.00 0.00 0.00 87 1013.3
20260505091146 18 194 0.0 0.0 0.00 0.00 0.00 86 1013.7
20260505090644 18 144 0.0 0.0 0.00 0.00 0.00 86 1013.4
20260505090142 18 167 0.0 0.0 0.00 0.00 0.00 86 1013.5
20260505085639 18 166 0.0 0.0 0.00 0.00 0.00 86 1013.5
20260505085137 17 212 1.6 1.6 0.00 0.00 0.00 86 1013.3
20260505084634 17 166 0.0 0.0 0.00 0.00 0.00 86 1013.4
20260505084133 17 247 0.0 0.0 0.00 0.00 0.00 86 1013.6
20260505083630 17 232 0.0 0.0 0.00 0.00 0.00 85 1013.6
20260505083126 18 249 0.0 0.0 0.00 0.00 0.00 85 1013.6
20260505082622 18 116 0.0 1.6 0.00 0.00 0.00 84 1013.5
20260505082120 18 118 0.0 0.0 0.00 0.00 0.00 84 1013.5
20260505081615 18 163 0.0 0.0 0.00 0.00 0.00 83 1013.6
20260505081114 18 114 1.6 1.6 0.00 0.00 0.00 83 1013.6
20260505080609 18 86 3.2 3.2 0.00 0.00 0.00 83 1013.6
20260505080106 18 99 3.2 3.2 0.00 0.00 0.00 83 1013.5
20260505075602 18 68 1.6 3.2 0.00 0.00 0.00 83 1013.4
20260505075059 18 148 0.0 0.0 0.00 0.00 0.00 83 1013.7
20260505074555 18 199 0.0 0.0 0.00 0.00 0.00 83 1013.6
20260505074053 18 177 0.0 0.0 0.00 0.00 0.00 82 1013.4
20260505073550 18 126 1.6 3.2 0.00 0.00 0.00 82 1013.7
20260505073049 18 124 1.6 1.6 0.00 0.00 0.00 82 1013.6
20260505072544 18 124 0.0 0.0 0.00 0.00 0.00 82 1013.6
20260505072041 18 113 1.6 1.6 0.00 0.00 0.00 82 1013.7
20260505071536 17 130 0.0 1.6 0.00 0.00 0.00 82 1013.5
20260505071035 17 149 0.0 0.0 0.00 0.00 0.00 82 1013.7
20260505070531 17 25 0.0 0.0 0.00 0.00 0.00 82 1013.9
20260505070027 17 124 0.0 0.0 0.00 0.00 0.00 82 1014.0
20260505065523 17 230 0.0 0.0 0.00 0.00 0.00 83 1013.9
20260505065020 17 221 0.0 1.6 0.00 0.00 0.00 83 1014.2
20260505064517 17 247 0.0 0.0 0.00 0.00 0.00 83 1014.0
20260505064015 17 177 0.0 0.0 0.00 0.00 0.00 83 1014.4
20260505063513 17 217 0.0 0.0 0.00 0.00 0.00 84 1014.7
20260505063008 16 254 0.0 0.0 0.00 0.00 0.00 84 1014.6
20260505062505 17 263 0.0 0.0 0.00 0.00 0.00 83 1014.7
20260505062002 17 262 0.0 0.0 0.00 0.00 0.00 82 1014.5
20260505061500 17 264 0.0 0.0 0.00 0.00 0.00 82 1014.6
20260505060957 17 262 0.0 0.0 0.00 0.00 0.00 82 1014.7
20260505060454 17 262 0.0 0.0 0.00 0.00 0.00 81 1014.6
20260505055950 17 268 0.0 0.0 0.00 0.00 0.00 80 1014.7
20260505055446 17 258 0.0 0.0 0.00 0.00 0.00 79 1014.5
20260505054943 17 258 0.0 0.0 0.00 0.00 0.00 79 1014.8
20260505054441 18 281 0.0 0.0 0.00 0.00 0.00 78 1014.8
20260505053939 18 278 0.0 0.0 0.00 0.00 0.00 78 1014.6
20260505053436 18 265 0.0 0.0 0.00 0.00 0.00 77 1014.7
20260505052932 18 306 0.0 0.0 0.00 0.00 0.00 77 1014.6
20260505052429 18 264 0.0 0.0 0.00 0.00 0.00 76 1014.4
20260505051927 18 250 0.0 0.0 0.00 0.00 0.00 75 1014.3
20260505051423 18 207 0.0 1.6 0.00 0.00 0.00 74 1014.2
20260505050922 19 219 0.0 0.0 0.00 0.00 0.00 74 1014.3
20260505050420 19 215 0.0 3.2 0.00 0.00 0.00 73 1014.3
20260505041347 20 207 1.6 3.2 0.00 0.00 0.00 70 1015.1
20260505040844 19 158 1.6 3.2 0.00 0.00 0.00 70 1015.1
20260505040342 20 167 1.6 3.2 0.00 0.00 0.00 70 1015.0
20260505035838 20 203 1.6 4.8 0.00 0.00 0.00 69 1015.1
20260505035334 20 186 1.6 3.2 0.00 0.00 0.00 69 1014.9
20260505034832 20 190 3.2 4.8 0.00 0.00 0.00 68 1015.0
20260505034328 20 165 3.2 6.4 0.00 0.00 0.00 68 1015.3
20260505033826 20 216 6.4 6.4 0.00 0.00 0.00 67 1015.2
20260505033322 20 216 6.4 9.7 0.00 0.00 0.00 67 1015.2
20260505032821 20 204 1.6 4.8 0.00 0.00 0.00 67 1015.1
20260505032316 20 154 3.2 6.4 0.00 0.00 0.00 66 1014.8
20260505031814 20 177 3.2 9.7 0.00 0.00 0.00 66 1014.8
20260505031310 20 158 8.0 11.3 0.00 0.00 0.00 66 1014.8
20260505030808 20 150 3.2 6.4 0.00 0.00 0.00 66 1014.9
20260505030304 20 180 3.2 4.8 0.00 0.00 0.00 66 1014.8
20260505025759 20 150 9.7 12.9 0.00 0.00 0.00 65 1015.0
20260505025257 20 205 3.2 4.8 0.00 0.00 0.00 65 1015.1
20260505024755 20 182 6.4 6.4 0.00 0.00 0.00 65 1014.8
20260505024252 20 141 6.4 11.3 0.00 0.00 0.00 65 1014.9
20260505023749 20 210 4.8 9.7 0.00 0.00 0.00 65 1014.8
20260505023246 20 200 3.2 6.4 0.00 0.00 0.00 65 1014.7
20260505022744 20 204 3.2 6.4 0.00 0.00 0.00 65 1014.7
20260505022240 20 205 1.6 11.3 0.00 0.00 0.00 64 1014.8
20260505021737 20 216 3.2 9.7 0.00 0.00 0.00 64 1014.7
20260505021234 20 204 3.2 6.4 0.00 0.00 0.00 64 1014.8
20260505020730 20 155 3.2 3.2 0.00 0.00 0.00 63 1015.4
20260505020225 20 211 4.8 12.9 0.00 0.00 0.00 63 1015.4
20260505015723 21 193 4.8 11.3 0.00 0.00 0.00 62 1015.2
20260505015220 21 181 4.8 4.8 0.00 0.00 0.00 62 1015.3
20260505014717 21 234 4.8 4.8 0.00 0.00 0.00 62 1015.2
20260505014214 21 148 6.4 11.3 0.00 0.00 0.00 61 1015.0
20260505013711 21 129 3.2 4.8 0.00 0.00 0.00 61 1014.8
20260505013208 21 164 4.8 6.4 0.00 0.00 0.00 61 1015.0
20260505012706 21 187 3.2 4.8 0.00 0.00 0.00 61 1014.9
20260505012203 21 224 3.2 11.3 0.00 0.00 0.00 60 1015.1
20260505011658 21 201 8.0 12.9 0.00 0.00 0.00 59 1014.8
20260505011156 21 211 6.4 9.7 0.00 0.00 0.00 59 1014.9
20260505010651 21 145 4.8 6.4 0.00 0.00 0.00 58 1014.7
20260505010148 21 151 4.8 12.9 0.00 0.00 0.00 58 1014.8
20260505005644 21 203 8.0 9.7 0.00 0.00 0.00 57 1014.8
20260505005141 21 146 3.2 4.8 0.00 0.00 0.00 57 1014.9
20260505004638 21 151 8.0 11.3 0.00 0.00 0.00 57 1015.0
20260505004135 22 202 3.2 6.4 0.00 0.00 0.00 57 1015.1
20260505003632 22 162 9.7 14.5 0.00 0.00 0.00 56 1015.1
20260505003130 22 251 6.4 9.7 0.00 0.00 0.00 56 1015.0
20260505002626 22 138 6.4 6.4 0.00 0.00 0.00 56 1015.5
20260505002124 22 172 9.7 12.9 0.00 0.00 0.00 55 1015.0
20260505001621 22 202 6.4 9.7 0.00 0.00 0.00 55 1015.2
20260505001118 22 188 6.4 11.3 0.00 0.00 0.00 54 1015.3
20260505000615 22 190 8.0 14.5 0.00 0.00 0.00 54 1015.5
20260505000113 22 205 6.4 14.5 0.00 0.00 0.00 54 1015.4
20260504235609 22 171 3.2 9.7 0.00 0.00 0.00 54 1015.5
20260504235106 22 211 8.0 12.9 0.00 0.00 0.00 53 1015.4
20260504234603 22 224 8.0 14.5 0.00 0.00 0.00 52 1015.5
20260504234100 22 183 8.0 14.5 0.00 0.00 0.00 52 1015.6
20260504233555 22 202 4.8 12.9 0.00 0.00 0.00 52 1015.7
20260504233052 22 173 1.6 11.3 0.00 0.00 0.00 51 1015.7
20260504232549 23 201 12.9 17.7 0.00 0.00 0.00 50 1015.7
20260504232047 23 189 4.8 14.5 0.00 0.00 0.00 50 1015.6
20260504231543 23 226 6.4 14.5 0.00 0.00 0.00 49 1015.8
20260504231039 23 189 4.8 14.5 0.00 0.00 0.00 49 1015.9
20260504230536 23 194 12.9 14.5 0.00 0.00 0.00 48 1015.7
20260504230035 23 185 11.3 12.9 0.00 0.00 0.00 48 1015.8
20260504225532 23 175 12.9 20.9 0.00 0.00 0.00 48 1015.8
20260504225029 23 232 11.3 14.5 0.00 0.00 0.00 47 1015.9
20260504224525 23 139 6.4 16.1 0.00 0.00 0.00 46 1016.0
20260504224022 23 210 8.0 12.9 0.00 0.00 0.00 46 1016.0
20260504223519 24 179 9.7 16.1 0.00 0.00 0.00 45 1016.0
20260504223015 24 187 12.9 16.1 0.00 0.00 0.00 45 1016.0
20260504222512 23 169 9.7 16.1 0.00 0.00 0.00 44 1016.2
20260504222010 24 244 8.0 16.1 0.00 0.00 0.00 45 1016.0
20260504221507 24 173 14.5 17.7 0.00 0.00 0.00 43 1016.0
20260504221003 24 208 14.5 17.7 0.00 0.00 0.00 44 1016.1
20260504220500 25 202 12.9 16.1 0.00 0.00 0.00 43 1016.3
20260504215956 24 206 8.0 16.1 0.00 0.00 0.00 44 1016.2
20260504215453 25 201 19.3 24.1 0.00 0.00 0.00 43 1016.1
20260504214950 25 119 6.4 12.9 0.00 0.00 0.00 44 1016.3
20260504214446 24 252 6.4 16.1 0.00 0.00 0.00 44 1016.1
20260504213943 24 236 4.8 14.5 0.00 0.00 0.00 43 1016.1
20260504213439 25 207 11.3 16.1 0.00 0.00 0.00 43 1016.3
20260504212937 24 199 3.2 14.5 0.00 0.00 0.00 43 1016.3
20260504212432 24 190 16.1 20.9 0.00 0.00 0.00 43 1016.2
20260504211931 24 193 9.7 12.9 0.00 0.00 0.00 43 1016.6
20260504211426 24 194 9.7 16.1 0.00 0.00 0.00 42 1016.5
20260504210924 25 148 9.7 12.9 0.00 0.00 0.00 41 1016.2
20260504210421 25 221 6.4 12.9 0.00 0.00 0.00 41 1016.2
20260504205918 25 179 8.0 14.5 0.00 0.00 0.00 39 1016.2
20260504205416 25 173 12.9 16.1 0.00 0.00 0.00 40 1016.3
20260504204914 25 160 8.0 12.9 0.00 0.00 0.00 39 1016.6
20260504204411 25 203 6.4 24.1 0.00 0.00 0.00 39 1016.5
20260504203911 25 212 9.7 12.9 0.00 0.00 0.00 40 1016.5
20260504203408 25 205 1.6 6.4 0.00 0.00 0.00 41 1016.7
20260504202903 25 180 14.5 17.7 0.00 0.00 0.00 38 1016.9
20260504202400 25 215 6.4 16.1 0.00 0.00 0.00 38 1017.0
20260504201857 25 161 9.7 22.5 0.00 0.00 0.00 41 1017.0
20260504201354 25 185 8.0 12.9 0.00 0.00 0.00 39 1017.0
20260504200852 24 180 4.8 14.5 0.00 0.00 0.00 40 1017.0
20260504200348 25 213 6.4 14.5 0.00 0.00 0.00 41 1017.3
20260504195845 25 200 4.8 14.5 0.00 0.00 0.00 39 1017.4
20260504195340 25 229 6.4 11.3 0.00 0.00 0.00 38 1017.8
20260504194837 25 161 8.0 14.5 0.00 0.00 0.00 39 1017.5
20260504194333 25 204 6.4 12.9 0.00 0.00 0.00 37 1017.6
20260504193829 25 154 9.7 12.9 0.00 0.00 0.00 38 1017.7
20260504193327 25 207 8.0 12.9 0.00 0.00 0.00 39 1017.5
20260504192826 25 268 4.8 9.7 0.00 0.00 0.00 39 1017.6
20260504192323 25 207 12.9 20.9 0.00 0.00 0.00 39 1017.8
20260504191821 25 171 4.8 12.9 0.00 0.00 0.00 40 1018.0
20260504191319 25 263 11.3 14.5 0.00 0.00 0.00 40 1017.7
20260504190814 25 170 4.8 14.5 0.00 0.00 0.00 39 1017.8
20260504190310 25 241 4.8 11.3 0.00 0.00 0.00 39 1017.9
20260504185807 25 213 3.2 12.9 0.00 0.00 0.00 41 1017.9
20260504185305 25 157 8.0 12.9 0.00 0.00 0.00 41 1018.0
20260504184800 25 157 11.3 14.5 0.00 0.00 0.00 41 1018.2
20260504184256 24 254 14.5 20.9 0.00 0.00 0.00 41 1018.3
20260504183752 25 249 9.7 14.5 0.00 0.00 0.00 41 1018.3
20260504183249 25 213 6.4 20.9 0.00 0.00 0.00 42 1018.0
20260504182747 25 267 9.7 16.1 0.00 0.00 0.00 40 1018.2
20260504182244 24 122 12.9 17.7 0.00 0.00 0.00 43 1018.1
20260504181741 25 220 6.4 14.5 0.00 0.00 0.00 43 1018.1
20260504181238 24 184 8.0 16.1 0.00 0.00 0.00 42 1018.3
20260504180738 24 192 6.4 12.9 0.00 0.00 0.00 43 1018.1
20260504180236 25 189 1.6 14.5 0.00 0.00 0.00 43 1018.2
20260504175733 24 197 8.0 17.7 0.00 0.00 0.00 42 1018.4
20260504175230 23 255 11.3 20.9 0.00 0.00 0.00 44 1018.3
20260504174728 24 202 16.1 20.9 0.00 0.00 0.00 44 1018.4
20260504174225 23 267 3.2 9.7 0.00 0.00 0.00 45 1018.5
20260504173721 24 240 9.7 14.5 0.00 0.00 0.00 45 1018.6
20260504173219 24 260 4.8 11.3 0.00 0.00 0.00 44 1018.3
20260504172715 25 193 6.4 20.9 0.00 0.00 0.00 45 1018.3
20260504172212 24 134 6.4 11.3 0.00 0.00 0.00 44 1018.2
20260504171708 25 171 8.0 17.7 0.00 0.00 0.00 45 1018.2
20260504171206 25 145 8.0 14.5 0.00 0.00 0.00 44 1018.5
20260504170702 25 161 14.5 16.1 0.00 0.00 0.00 44 1018.3
20260504170200 24 216 6.4 17.7 0.00 0.00 0.00 45 1018.2
20260504160118 23 130 9.7 16.1 0.00 0.00 0.00 42 1019.0
20260504151045 23 85 4.8 11.3 0.00 0.00 0.00 47 1019.2
20260504150542 23 138 3.2 9.7 0.00 0.00 0.00 46 1019.0
20260504141008 23 106 1.6 6.4 0.00 0.00 0.00 51 1018.9
20260504140505 23 129 1.6 3.2 0.00 0.00 0.00 50 1019.0
20260504130429 19 237 0.0 1.6 0.00 0.00 0.00 66 1019.1
20260504110316 12 255 0.0 0.0 0.00 0.00 0.00 89 1018.2